Location: Kellogg
(38.0159°N, 90.0546°W)
Time: 20:01:44
(UTC+00:00)

Transit 4A - Pass Details

Date: 17 September 2024
Orbit: 865 x 978 km, 66.8° (Epoch: 11 October)

Event Time Altitude Azimuth Distance (km) Brightness Sun altitude
Rises 17:28:44 0° 331° (NNW) 3,612 10.6 53.4°
Reaches altitude 10° 17:31:15 10° 331° (NNW) 2,679 10.1 53.5°
Maximum altitude 17:37:32 87° 244° (WSW) 972 9.1 53.6°
Drops below altitude 10° 17:43:55 10° 155° (SSE) 2,713 11.1 53.8°
Sets 17:46:29 0° 155° (SSE) 3,661 11.5 53.8°
